sat.trackr.live / text

‹ back to catalog

ONEWEB-0042

NORAD 45441 · 2020-020T

PAYLOAD ACTIVE UNKNOWN

§ Identity

Operator
Country
UK
Launch date
2020-03-21
Launch site
TYMSC
Launch vehicle
Mass (kg)
RCS (m²)

Purposes: comms

External: N2YO · Heavens-Above · Gunter

§ Orbital elements

Epoch: 2026-09-20T00:51:52.397568Z

Period
109.80 min
Inclination
87.8974°
Eccentricity
0.0001912
Mean motion
13.11417399 rev/d
Perigee alt
1,216.2 km
Apogee alt
1,219.1 km
Semi-major
7,595.8 km
B*
1.6552e-3
RAAN
2.2085°
Arg perigee
102.6192°
Mean anomaly
257.5149°
Rev number
31,509

§ Raw data

ONEWEB-00421 45441U 20020T   26263.03602312  .00000599  00000+0  16552-2 0  99912 45441  87.8974   2.2085 0001912 102.6192 257.5149 13.11417399315094

JSON: /api/v1/satellites/45441 · /tle

For live sub-satellite position, see the globe view (requires WebGL).

§ Visibility from observer

Set your observer location to see the next 7 days of passes ≥ 10°. The values pass through the URL so the page stays shareable.

No JS? Fill the form by hand. The geolocation button needs JavaScript.